Wind_Speed
22 22 22 22 22 22 22 21 20 20 19 20 20 21 21 21 20 20 20 19 18 18 17 16 16 15 15 16 16 15 17 16 15 13 15 16 16 18 18 15 15 16 14 11 8 8 11 13 15 14 15 16 17 18 18 19 20 16 9 10 11 12 14 13 15 14 12 14 13 14 11 10 10 14 19 19 24 29 30 33 34 35 33 34 25 30 43 37
23 23 22 22 22 22 22 21 21 21 21 21 21 21 21 22 21 20 20 19 18 17 17 17 17 17 16 16 15 16 16 15 18 19 18 15 15 18 20 20 19 18 16 11 9 11 12 13 14 15 16 17 17 18 18 19 21 15 8 10 12 12 14 15 17 16 17 14 9 10 12 12 11 13 18 15 13 18 21 27 32 34 32 20 25 36 38 36
23 23 23 23 23 23 22 22 22 22 22 22 23 23 22 22 21 20 19 19 18 18 18 18 19 18 17 15 14 15 15 18 21 16 11 10 10 12 14 16 17 15 13 11 9 11 13 14 13 13 15 16 16 18 18 17 18 16 12 10 11 15 16 20 21 20 19 9 11 11 15 14 12 13 16 15 13 17 18 24 24 27 29 18 34 39 38 38
24 24 24 24 24 23 23 22 22 22 23 23 23 23 22 22 21 20 19 18 18 18 18 18 19 18 15 13 12 12 16 19 13 4 3 6 6 6 5 6 8 9 10 9 8 11 12 13 13 13 13 14 17 19 18 17 16 14 14 11 13 17 15 21 24 25 22 5 9 7 11 12 13 13 14 16 12 13 16 21 23 25 27 22 32 34 39 43
25 25 25 25 24 24 24 23 23 23 23 22 22 22 21 20 19 18 18 18 17 17 17 18 18 16 14 12 10 11 14 11 1 4 3 6 6 5 3 6 9 7 8 8 10 12 11 12 13 14 13 11 15 16 16 22 19 11 14 16 18 19 15 19 22 26 24 5 9 8 8 11 15 15 15 17 12 11 12 10 17 17 12 16 25 25 30 40
25 25 26 26 25 25 24 24 24 23 22 21 21 20 19 18 18 17 17 17 17 17 17 17 16 14 13 11 8 7 8 5 3 4 6 8 10 6 5 8 8 4 4 8 13 12 12 13 13 14 14 11 13 14 16 23 21 12 13 17 21 22 17 20 23 24 18 7 9 9 9 13 16 16 17 19 17 19 20 19 20 13 6 8 13 19 23 25
26 26 26 26 26 25 25 24 23 22 21 20 19 18 18 17 17 17 17 17 17 17 16 15 14 13 13 11 8 5 13 12 5 6 6 10 13 8 7 8 8 6 5 9 13 12 12 14 14 15 12 11 14 15 18 22 22 15 13 16 21 23 21 21 25 24 16 10 9 12 13 13 16 16 16 20 20 26 28 23 26 24 13 3 1 11 24 19
27 27 27 26 26 25 25 24 22 21 20 18 18 17 17 17 17 18 17 17 16 16 15 14 13 11 12 10 9 9 14 10 6 9 10 12 14 10 7 7 7 8 9 12 13 13 13 14 14 15 12 11 14 15 20 21 18 17 16 17 18 19 20 19 21 22 14 11 13 16 15 13 18 19 19 23 23 29 33 26 25 25 20 12 6 5 18 27
28 28 28 27 26 26 25 23 20 19 18 17 17 17 17 17 18 18 18 17 16 16 14 13 12 10 11 9 9 11 4 3 2 9 11 12 11 7 6 7 8 9 11 12 12 13 12 13 13 13 11 13 15 15 18 16 12 16 18 16 15 16 20 21 20 16 12 14 15 16 16 14 20 20 19 25 24 29 37 31 26 26 28 22 10 11 11 22
28 28 28 28 27 26 24 22 19 18 18 17 17 17 18 18 19 18 17 16 16 15 14 13 11 9 8 7 8 7 1 1 4 6 7 7 5 6 7 8 8 9 10 11 12 13 13 13 12 11 11 14 15 14 15 13 11 14 15 14 16 18 20 21 17 12 12 15 16 16 14 15 20 16 14 21 19 23 35 34 29 28 31 25 14 15 19 18
29 29 29 28 27 26 24 20 18 18 18 17 18 18 18 19 18 17 16 16 16 16 15 12 9 8 6 5 10 7 2 4 5 5 7 6 6 8 9 8 7 9 11 11 12 12 13 13 12 11 8 8 11 13 12 14 16 18 16 12 14 18 19 19 15 12 13 13 15 17 15 15 19 16 15 21 20 19 29 34 32 29 30 28 20 19 25 23
29 29 29 29 27 26 23 19 18 18 17 18 18 19 19 18 18 18 17 17 16 13 12 9 9 9 6 8 15 10 7 8 6 7 8 8 9 9 10 10 9 10 12 13 13 12 12 13 11 11 10 7 8 9 7 10 15 17 17 13 13 16 17 19 18 19 16 13 17 16 14 15 16 18 21 23 23 23 25 32 34 29 27 31 28 23 29 28
30 30 30 29 28 26 22 18 19 18 17 18 18 19 18 17 18 17 15 15 13 12 10 10 12 8 5 9 10 7 7 7 6 7 7 7 9 10 11 11 11 12 13 14 14 13 12 11 11 13 15 13 10 10 10 10 12 13 13 10 10 12 14 18 20 22 19 17 20 16 10 12 14 19 24 23 25 26 25 29 33 30 25 29 32 28 31 29
31 31 30 30 28 25 21 18 18 18 18 18 18 18 15 16 18 14 13 15 12 10 8 7 6 1 5 10 5 4 6 3 5 7 6 6 7 9 11 11 11 11 11 13 14 15 13 8 11 14 15 15 13 14 14 12 10 10 11 9 9 9 11 16 17 20 19 18 23 17 9 10 12 16 20 23 27 28 26 27 30 31 27 27 33 32 33 31
31 31 30 30 28 25 20 17 18 18 18 18 17 15 13 15 17 12 13 14 9 5 5 7 4 4 9 12 6 7 6 2 5 6 5 6 7 8 10 10 9 8 9 11 12 13 12 9 11 13 13 15 15 13 10 9 8 9 10 9 9 9 11 15 16 19 18 17 22 17 8 10 12 14 17 20 23 26 27 27 27 29 29 28 30 32 34 33
31 31 31 29 28 24 19 17 19 18 18 18 15 12 13 15 16 14 12 11 10 7 6 6 5 2 8 7 5 7 5 4 6 4 5 6 7 10 10 9 7 8 9 10 10 11 12 12 13 14 14 13 11 10 8 8 9 9 10 9 10 11 11 12 15 20 18 14 17 16 9 9 10 15 20 21 21 21 22 23 25 27 29 30 29 31 34 37
31 32 31 29 27 23 18 17 19 18 18 16 13 12 13 14 14 14 9 8 12 9 5 5 5 6 9 5 6 7 6 6 4 2 6 7 8 11 12 10 8 10 11 11 11 12 12 13 12 12 12 10 9 9 8 9 8 8 9 10 12 14 12 11 13 16 17 13 13 14 12 12 12 13 17 16 15 16 16 18 22 25 27 29 31 33 34 32
32 32 30 29 27 21 17 17 18 18 17 13 12 14 13 13 15 11 4 6 10 7 6 9 7 7 8 8 9 7 5 4 2 5 9 9 10 11 11 12 12 13 14 13 13 14 13 13 12 9 9 9 9 9 9 10 10 9 10 9 10 13 13 14 12 10 15 13 12 13 12 15 16 14 16 16 14 14 14 16 18 21 24 27 31 33 30 25
32 32 30 28 26 19 15 17 17 19 16 10 12 14 10 13 15 6 5 4 7 5 7 8 11 6 7 8 9 8 7 8 10 12 10 11 12 11 12 12 13 15 14 11 12 15 12 10 11 9 8 10 11 12 12 14 15 14 13 11 11 11 11 14 14 8 12 14 13 14 14 14 15 14 14 16 17 17 17 17 18 19 21 24 28 30 29 29
32 32 30 28 23 16 15 16 17 17 13 11 16 17 11 13 11 3 8 10 13 13 14 7 11 12 13 11 12 12 10 10 13 13 10 10 9 10 13 13 14 14 12 11 10 12 12 9 9 10 10 13 14 15 16 17 17 17 15 13 14 13 11 13 14 12 11 12 11 15 16 14 12 13 13 14 17 18 16 17 18 20 20 21 24 28 31 34
32 31 29 26 19 15 15 15 16 16 13 11 15 16 13 14 9 7 16 18 15 16 19 12 9 14 12 12 14 12 10 11 13 12 9 8 5 7 10 11 12 10 10 13 13 12 11 10 12 14 15 16 16 15 15 17 16 16 13 12 12 12 12 14 15 13 13 12 11 15 17 14 13 13 15 17 18 16 16 16 17 21 22 22 22 25 31 35
32 30 27 22 15 14 14 13 14 14 14 11 11 12 13 12 10 11 14 16 19 17 16 12 11 13 13 12 9 6 9 12 12 9 7 7 6 7 8 8 10 9 9 11 10 8 7 11 15 17 16 15 17 15 15 18 17 14 11 10 10 10 12 14 15 14 12 10 11 16 17 16 18 16 14 17 17 17 19 20 18 21 22 24 24 22 26 31
32 29 25 17 12 13 12 12 14 13 14 13 10 11 12 11 11 13 12 12 17 16 15 12 11 12 12 9 4 6 11 12 11 8 3 7 9 11 11 10 10 11 10 8 9 6 5 11 13 13 11 10 14 16 15 15 14 12 10 9 10 11 11 10 11 13 13 11 12 16 14 13 18 15 13 17 21 21 23 25 24 23 22 23 26 25 24 27
31 28 21 14 11 12 10 9 12 12 12 11 11 11 11 13 12 13 13 9 10 12 12 9 7 7 6 7 7 8 10 11 12 9 3 7 11 11 11 12 11 11 11 12 14 11 11 14 10 9 11 10 12 15 14 8 8 13 13 11 12 13 14 11 11 12 12 12 12 14 13 11 15 16 14 16 21 21 22 24 24 25 25 24 26 27 27 25
30 26 18 12 10 10 10 9 10 12 11 8 10 12 12 13 11 11 11 7 6 6 6 3 4 3 3 8 10 8 11 14 13 10 7 10 12 10 11 12 10 10 13 15 14 12 14 15 11 10 11 13 13 13 13 7 6 12 13 14 15 15 17 16 14 12 9 9 10 11 11 9 12 17 17 13 14 16 18 21 22 24 27 26 26 27 29 29
30 25 16 11 10 10 10 9 9 12 12 8 11 14 12 11 11 9 7 5 2 1 2 1 3 2 6 9 10 11 12 10 8 10 11 12 11 10 10 10 8 10 13 13 10 7 9 12 13 13 13 14 13 12 14 9 6 10 11 13 14 14 17 17 15 12 9 9 10 11 11 9 9 14 17 15 16 18 19 20 22 25 26 26 27 26 29 31
29 23 15 10 11 11 11 9 9 12 12 12 14 14 12 12 13 8 5 3 2 0 2 2 0 5 8 7 9 11 9 9 11 13 13 10 9 9 9 9 9 9 8 6 6 5 7 12 13 14 15 13 10 10 12 10 7 10 11 12 10 9 14 15 14 12 9 10 12 14 13 11 10 12 15 18 19 19 19 21 21 23 26 27 28 28 30 32
28 22 13 9 10 10 11 12 11 11 12 14 15 12 12 14 11 4 3 1 3 0 2 4 4 8 9 10 12 12 13 15 11 8 10 9 9 9 9 10 11 11 9 5 7 9 9 12 13 12 12 10 9 10 11 11 10 10 12 12 8 7 12 14 12 11 10 10 10 13 14 11 10 11 14 17 19 18 19 23 19 18 24 28 29 30 31 32
27 20 13 9 8 10 13 13 10 10 14 14 14 13 11 11 6 2 3 2 2 1 4 6 6 9 12 14 15 15 15 13 7 7 13 12 12 11 8 10 12 13 13 10 10 13 11 13 16 12 9 9 11 12 11 9 7 8 12 13 10 9 12 12 11 10 11 11 11 14 15 12 9 11 13 14 16 17 18 19 15 14 22 26 28 30 31 33
25 17 12 9 8 10 12 12 8 10 15 14 14 13 9 6 5 4 2 3 3 4 8 9 9 14 17 14 12 13 14 11 9 14 12 4 4 8 8 14 14 11 11 11 12 14 13 14 16 11 11 12 12 12 12 11 10 9 9 10 10 10 11 10 9 9 9 9 12 18 19 15 11 9 11 12 13 16 16 15 14 17 23 26 27 29 30 32
23 14 11 11 11 9 8 10 10 12 14 15 15 13 8 5 4 3 6 7 5 8 10 10 12 16 17 14 11 12 12 9 12 14 8 7 6 3 3 9 11 8 7 7 8 12 14 11 7 8 13 16 12 10 11 11 10 9 6 6 7 7 7 8 7 8 8 9 13 19 21 19 14 9 11 13 15 19 18 16 17 19 21 25 27 28 31 33
20 11 12 15 14 11 7 10 14 14 15 15 15 12 7 5 2 3 9 9 6 7 10 11 13 15 15 13 10 11 12 9 10 13 10 8 9 4 3 1 4 5 5 5 6 9 10 7 6 6 8 13 12 8 7 8 8 8 7 5 5 5 5 6 7 7 8 10 14 18 19 17 14 12 16 17 18 21 19 17 19 17 17 22 28 29 32 35
18 10 13 18 17 13 10 13 16 16 16 15 12 8 6 4 4 7 10 8 7 9 12 13 15 16 14 10 8 11 12 11 11 12 12 11 11 7 5 6 2 3 3 7 8 8 7 3 5 5 1 5 9 6 4 5 5 7 7 5 5 5 5 7 8 7 8 11 15 19 18 14 12 12 18 22 21 21 21 21 24 24 19 21 27 30 33 35
17 8 11 19 17 14 14 14 17 17 15 14 10 8 5 5 7 10 10 9 10 12 13 14 17 16 11 8 8 10 9 9 14 16 14 11 8 6 4 4 3 3 3 7 6 5 8 4 2 4 2 6 8 8 6 3 3 8 7 6 7 6 5 7 6 7 8 9 12 15 12 10 9 10 16 21 21 22 25 28 30 28 25 25 29 30 34 35
16 9 11 16 15 14 14 14 15 15 14 12 10 6 4 5 7 9 9 9 10 12 15 16 16 13 10 8 8 10 10 9 14 16 12 10 9 7 5 4 7 8 6 6 4 4 8 4 2 7 4 4 7 10 8 3 3 7 7 7 8 7 6 6 7 9 10 9 10 10 7 8 10 13 16 18 19 20 24 28 30 27 26 29 32 29 32 36
15 11 11 11 10 12 13 13 13 12 11 11 8 4 5 6 7 7 8 10 10 12 15 14 11 8 9 8 6 10 13 10 13 13 9 11 11 7 6 4 8 10 6 5 5 4 5 5 4 7 8 7 11 11 7 7 4 3 5 7 6 7 8 7 8 10 10 11 9 7 9 10 11 13 16 19 21 21 21 22 24 24 26 30 31 27 27 34
13 10 6 6 10 14 13 12 11 9 8 9 6 5 6 6 9 9 10 13 13 13 12 10 8 8 9 8 8 13 14 10 12 11 8 12 9 6 5 3 5 8 6 4 4 2 3 7 8 8 8 6 9 11 8 9 7 4 4 5 5 7 8 6 7 7 8 10 8 9 13 12 10 9 11 18 22 22 23 22 21 23 25 27 29 29 27 31
13 11 5 7 14 17 12 11 11 9 8 7 5 6 7 8 12 12 13 14 13 11 9 7 7 8 9 9 10 14 13 9 11 11 9 9 6 6 5 2 3 8 7 5 4 3 4 7 7 5 5 5 5 7 7 8 10 9 6 4 4 6 5 4 6 7 8 9 8 12 14 12 11 8 6 10 14 16 21 23 21 22 22 23 28 32 32 33
15 12 5 10 20 16 8 10 12 11 9 5 5 6 7 10 12 14 15 15 11 9 8 8 8 7 9 11 12 10 9 9 12 11 7 5 6 7 5 2 5 10 10 9 6 5 4 4 5 4 4 5 3 4 5 3 5 8 8 6 5 5 4 4 5 6 7 8 8 11 12 9 8 3 3 9 14 16 16 19 20 19 20 24 30 33 34 35
13 8 3 16 22 14 8 11 13 10 6 4 7 5 7 9 11 14 15 13 10 8 7 8 9 7 9 12 11 6 5 10 12 10 7 7 9 7 4 1 4 9 14 13 7 5 4 3 5 6 7 6 3 3 5 5 3 5 6 6 6 5 5 6 6 6 7 7 7 9 9 8 5 1 5 13 16 18 17 16 16 16 20 28 34 34 32 36
12 4 6 20 21 16 14 12 8 5 3 6 6 6 7 7 9 13 15 13 11 9 8 9 9 8 9 11 8 5 5 8 10 9 7 6 9 6 3 4 6 7 12 11 6 3 3 4 7 8 7 6 4 6 9 8 6 5 5 6 7 6 6 7 8 7 7 7 7 8 10 11 7 3 8 14 14 16 19 17 13 16 23 33 39 37 32 34
12 4 9 21 21 18 16 9 5 6 5 6 8 8 9 7 9 13 15 15 14 10 8 9 8 9 10 8 5 4 4 6 7 8 8 9 9 7 7 11 9 6 8 9 7 4 2 4 7 9 8 8 9 11 12 11 10 8 7 7 8 7 6 8 8 7 6 7 8 7 9 12 5 5 8 12 13 15 17 18 16 16 22 29 36 38 33 34
12 9 12 20 21 18 12 5 6 6 5 8 11 10 11 9 10 12 13 14 12 9 10 9 8 9 10 8 4 1 0 4 5 6 10 12 10 9 14 15 12 9 8 7 6 5 3 4 6 8 8 9 10 9 10 9 8 8 8 7 8 8 8 9 9 8 7 8 9 6 9 12 3 5 8 11 13 15 16 19 19 16 19 23 29 35 34 35
13 10 10 17 18 16 10 6 6 6 6 10 11 11 11 10 11 11 11 12 10 8 10 9 9 11 10 11 9 1 2 2 4 5 9 11 11 15 18 16 13 11 8 5 4 4 4 4 5 7 8 7 4 2 5 5 4 5 7 7 10 11 12 11 9 8 9 11 12 8 10 11 1 4 11 15 15 15 15 20 19 14 19 24 26 32 35 36
14 8 8 16 15 9 7 6 7 6 7 10 10 10 11 10 10 11 11 11 10 11 11 9 11 13 11 12 13 7 2 4 3 5 7 10 12 15 17 18 16 12 7 8 8 5 5 5 5 6 7 7 6 5 5 4 3 5 7 9 11 11 13 11 7 7 9 11 11 9 11 13 5 2 8 14 15 14 17 18 15 14 17 23 27 30 33 34
11 5 9 16 15 9 6 8 10 7 6 9 8 8 11 10 9 13 14 10 11 14 13 10 11 12 12 13 12 9 5 3 4 6 8 10 10 12 17 20 16 10 8 11 10 5 4 6 7 7 7 7 9 10 9 8 7 7 8 11 12 11 12 9 6 8 9 9 11 11 11 17 17 9 6 10 11 13 18 16 13 17 16 24 28 29 31 33
9 6 6 9 10 9 8 11 13 9 6 7 7 8 12 12 10 12 12 10 13 15 12 10 12 12 13 14 10 7 7 7 7 9 10 11 10 13 19 15 8 7 7 9 9 4 3 7 9 10 11 11 12 14 13 11 10 10 10 12 11 11 10 8 9 10 8 8 10 9 8 14 20 15 9 11 13 13 17 16 16 19 15 27 26 27 32 30
9 7 7 7 5 5 7 10 12 12 7 5 6 8 11 13 12 11 10 11 14 14 10 9 14 16 16 16 10 5 6 7 7 8 10 12 12 14 16 9 2 4 7 8 8 3 3 7 9 11 14 15 14 14 13 10 10 10 10 11 11 11 10 9 11 12 9 10 12 11 13 17 20 19 15 13 12 13 16 18 25 27 16 28 27 28 31 29
10 8 8 9 7 9 8 7 11 13 7 7 6 8 10 13 14 12 10 11 11 12 11 11 16 19 19 17 12 6 6 8 7 8 10 13 13 12 12 9 3 3 7 10 7 4 3 5 9 13 15 16 14 12 11 9 9 9 10 12 12 11 11 11 12 13 13 14 16 17 21 22 20 18 18 17 14 15 18 20 25 26 14 23 28 28 27 29
10 7 9 12 11 11 11 9 10 10 7 8 7 8 10 13 14 13 13 12 9 10 13 14 18 20 19 17 15 10 10 11 10 10 11 12 12 10 7 6 6 9 12 9 6 6 4 5 10 12 11 12 12 9 8 8 8 9 11 12 12 11 12 12 11 11 11 14 16 14 16 19 17 14 14 17 15 14 15 16 16 13 7 7 19 26 27 29
10 6 9 11 9 10 11 11 9 7 5 7 7 8 10 13 14 14 12 12 11 11 13 17 19 18 16 16 15 15 17 18 16 17 16 13 13 11 8 8 10 11 10 8 7 7 6 6 9 8 8 9 8 8 11 10 9 9 11 13 14 11 9 8 7 7 8 11 12 10 10 13 12 9 9 11 12 10 8 10 6 3 4 2 9 21 27 30
13 7 9 9 8 11 12 9 8 6 5 6 8 10 12 13 16 15 10 9 13 16 17 18 18 15 14 15 15 16 21 23 23 25 22 18 16 14 12 13 14 11 8 7 8 6 5 7 6 5 7 9 9 11 14 11 6 5 8 12 13 10 8 7 8 10 12 12 9 8 10 9 7 8 9 8 7 5 2 7 11 6 3 5 11 19 22 28
Wind_Direction
356 355 353 351 350 348 346 344 342 341 337 334 331 329 328 328 329 327 326 325 323 324 326 329 327 325 325 327 329 324 320 315 305 294 284 273 256 248 250 251 250 253 264 270 252 246 254 247 241 241 242 239 234 235 235 233 232 229 226 233 236 240 239 240 245 249 263 261 255 264 289 324 321 307 290 261 237 233 232 228 228 241 232 222 217 165 160 161
355 354 352 350 349 347 345 342 341 339 336 333 330 328 326 326 326 324 325 324 323 327 328 327 324 325 328 333 335 326 320 317 310 301 288 276 262 258 256 256 253 250 257 253 236 243 251 248 242 236 233 235 233 229 230 227 226 226 229 233 235 242 246 248 251 256 260 273 325 358 353 333 321 323 308 297 273 261 245 228 223 229 233 207 156 151 155 156
355 353 351 350 348 346 343 342 340 337 335 332 329 327 325 325 325 325 325 325 326 328 326 323 322 325 331 339 336 325 324 322 313 297 281 288 286 277 270 260 249 244 238 220 232 259 259 258 260 253 237 233 235 232 227 222 222 224 228 235 238 241 249 254 255 260 261 294 9 1 348 332 308 314 314 309 299 290 264 226 219 223 220 162 131 147 153 156
355 353 351 350 348 345 343 342 340 337 335 332 329 327 326 327 327 328 327 327 327 323 321 318 319 324 332 341 332 330 331 317 303 248 242 317 320 296 276 234 206 203 204 204 245 272 270 265 267 264 250 240 239 238 233 224 220 217 224 237 244 245 250 249 252 258 258 325 20 327 333 319 297 306 309 308 301 283 260 215 208 224 217 158 134 153 157 163
355 354 351 349 347 345 344 342 340 337 334 332 331 331 332 334 333 333 329 326 322 317 316 314 317 323 333 339 328 337 330 315 228 178 272 318 324 307 246 175 166 178 198 224 263 266 264 259 257 254 248 249 245 242 237 227 225 224 230 237 244 250 254 250 249 248 247 316 3 318 322 307 302 303 300 306 303 278 277 244 222 226 213 143 138 163 166 168
355 353 350 349 347 345 344 342 340 336 335 336 337 339 340 340 337 334 329 324 320 316 315 313 318 325 334 328 322 339 307 308 108 220 281 305 311 303 236 185 177 201 216 242 262 257 254 251 248 246 240 244 244 243 243 230 225 232 241 241 243 246 251 257 256 252 258 325 343 317 316 306 298 295 298 298 294 289 295 305 298 309 8 101 143 181 181 177
355 353 350 349 347 345 343 342 339 337 338 340 342 343 344 344 337 333 329 326 322 318 315 315 324 329 327 318 322 297 252 267 272 242 282 304 308 297 245 221 217 255 262 250 254 249 250 248 243 246 244 243 243 242 247 241 232 231 242 244 244 246 246 252 260 265 282 320 306 297 301 295 287 286 293 285 286 293 294 305 309 316 327 328 343 192 182 191
354 352 350 349 347 345 343 341 340 338 340 341 343 345 345 342 334 330 328 325 321 318 318 322 328 325 318 320 333 297 252 252 254 258 285 297 304 296 257 248 244 255 256 249 250 245 248 251 247 250 249 246 250 247 244 244 239 233 237 243 246 252 256 258 265 272 286 301 284 280 283 283 284 286 286 279 284 287 286 294 298 302 300 278 294 274 184 191
354 352 350 348 347 345 343 342 340 340 341 343 344 345 344 337 330 328 325 322 318 317 322 324 323 315 314 324 320 301 263 114 301 282 295 303 303 283 253 255 243 239 247 248 248 248 251 252 250 252 261 264 267 270 258 247 239 236 239 252 260 259 261 262 263 269 279 281 275 272 273 276 281 285 279 273 278 283 282 285 284 284 288 280 265 283 246 209
353 352 349 348 347 345 344 342 342 342 342 344 345 344 342 335 329 326 322 319 317 319 323 318 314 310 321 329 298 283 180 80 305 283 280 292 276 232 242 253 241 236 248 252 245 245 248 251 263 281 291 283 275 281 276 265 263 258 249 254 267 267 265 264 261 262 266 266 267 270 273 273 275 276 273 272 273 279 281 281 278 274 276 280 271 269 274 259
352 351 349 348 346 345 345 343 343 344 343 345 344 343 341 334 328 325 321 317 317 317 314 308 303 307 334 313 271 266 342 311 286 271 264 264 249 234 239 244 246 249 253 257 248 245 249 254 274 290 285 280 273 270 271 269 269 268 264 263 271 276 274 271 267 257 256 258 256 262 268 266 264 261 260 272 274 270 278 281 277 272 271 272 271 270 269 268
352 351 349 348 346 345 345 342 345 345 343 344 342 343 339 333 330 326 323 320 318 314 309 302 293 304 323 280 258 261 308 305 282 277 267 257 252 241 241 247 253 258 258 258 251 242 246 256 269 268 263 285 284 266 282 285 271 266 268 271 268 267 262 257 255 249 248 250 248 252 260 253 248 252 255 263 268 263 265 274 277 276 273 269 267 269 264 261
350 350 349 348 346 345 344 342 346 345 342 343 342 341 338 337 336 331 331 327 320 316 315 301 294 307 296 267 262 272 298 288 269 271 258 253 253 243 245 250 254 259 257 254 252 250 248 246 251 257 265 278 274 268 297 295 272 265 264 268 265 261 254 247 247 245 243 241 238 238 248 249 241 246 248 247 251 255 254 259 269 274 273 268 265 267 262 255
348 349 349 347 346 345 343 343 345 344 343 342 342 341 340 346 345 341 341 334 323 320 330 321 311 332 242 264 267 273 297 289 249 258 257 251 245 241 239 239 250 255 250 248 251 262 270 258 248 258 262 264 267 277 288 275 255 254 252 251 252 255 254 246 240 234 235 232 226 225 239 249 248 247 244 238 233 236 243 247 255 264 267 264 261 263 263 258
347 348 348 347 345 344 343 343 345 345 345 343 342 344 346 349 349 345 341 345 356 358 11 16 36 155 247 272 259 258 302 311 234 244 247 243 244 243 231 221 233 240 240 245 248 256 266 262 252 257 256 253 256 264 272 262 250 246 244 245 239 243 253 250 244 234 230 223 212 213 238 244 247 255 251 248 238 225 226 236 242 250 254 254 255 255 259 259
346 347 348 346 344 345 343 342 345 346 349 347 342 343 345 345 346 340 337 356 10 28 52 18 13 265 270 284 246 256 296 261 226 221 229 236 255 260 247 223 221 239 240 239 248 253 252 250 250 253 256 253 246 243 250 252 246 235 234 245 241 242 249 243 240 234 225 214 200 201 229 247 244 246 242 241 246 235 222 225 230 236 241 242 244 244 244 246
346 347 347 345 344 345 342 342 346 349 354 355 346 342 339 338 339 331 331 360 357 7 28 333 313 264 260 256 252 258 265 246 204 208 252 246 253 270 277 260 243 249 243 235 242 249 247 245 245 249 251 249 245 242 241 242 242 236 231 237 241 243 252 251 240 225 213 204 197 204 224 242 246 251 253 246 245 247 236 230 228 228 232 233 236 238 237 235
346 347 347 345 344 344 342 344 347 351 358 1 351 339 335 339 338 330 336 352 342 337 289 270 258 264 258 239 260 276 284 290 298 281 278 271 251 252 268 264 261 264 257 247 238 236 240 243 242 245 241 234 238 238 238 242 244 249 246 243 244 242 246 255 256 215 194 196 204 220 234 240 244 247 256 259 256 256 252 247 241 233 229 228 232 236 238 236
345 347 347 344 344 346 344 346 350 354 358 10 5 348 344 346 336 353 58 319 284 276 268 227 200 245 295 267 277 304 314 317 293 269 267 270 253 243 249 248 257 265 263 259 241 234 236 240 241 241 244 239 231 227 234 249 257 260 260 258 257 254 250 254 261 235 194 195 200 214 226 232 242 243 239 242 245 249 251 252 253 249 238 226 227 231 233 234
346 347 347 344 345 348 346 349 356 3 11 27 19 5 360 355 337 6 12 303 257 260 281 253 209 256 295 298 311 317 310 313 294 278 273 265 253 260 258 246 250 253 252 258 250 238 233 238 244 238 243 246 244 241 239 245 256 263 264 263 264 265 266 258 258 256 236 227 217 220 227 227 239 255 259 255 249 248 245 245 248 252 252 237 227 225 225 231
347 347 346 346 348 352 351 353 5 21 29 22 15 11 8 7 355 335 335 313 283 270 273 273 259 274 288 296 311 309 301 307 292 285 283 260 238 266 261 240 247 250 241 248 253 247 236 237 245 245 250 252 253 257 258 257 255 260 263 262 263 261 263 261 255 254 259 263 255 250 252 248 240 243 259 263 257 253 245 242 241 243 251 251 241 227 222 227
348 348 347 349 354 358 360 8 22 31 28 12 2 10 10 6 348 328 326 307 298 287 272 269 256 262 271 274 291 297 294 299 292 286 261 236 234 256 263 243 246 259 252 250 253 255 255 249 245 248 256 262 263 262 270 273 263 258 261 259 259 255 255 260 256 250 250 254 254 258 261 258 246 232 242 255 252 250 247 245 244 242 243 246 249 240 225 222
348 348 349 354 360 3 7 20 26 25 25 18 5 12 9 354 338 328 323 298 292 285 263 251 238 257 277 280 327 333 298 293 300 306 212 208 250 259 265 263 259 267 262 251 244 241 261 257 255 266 275 287 284 269 264 273 268 258 256 255 258 258 259 259 255 255 256 258 262 265 264 265 263 245 236 251 251 248 244 243 243 242 244 241 244 246 238 226
348 349 350 356 2 6 4 6 16 13 7 1 355 7 1 344 338 331 322 292 282 277 249 238 255 287 297 293 321 319 297 293 293 297 210 215 258 262 265 268 269 270 263 258 256 249 253 254 258 278 279 283 287 275 264 268 272 263 254 253 257 257 262 265 266 270 271 269 268 268 263 256 261 255 243 241 244 246 243 241 238 235 239 240 241 244 247 240
349 349 350 355 359 6 360 351 7 357 333 334 353 353 350 343 336 335 326 280 261 265 228 225 278 314 315 287 289 284 292 297 285 280 256 244 263 276 280 275 270 273 272 272 270 263 264 266 264 258 251 250 260 268 264 258 264 261 252 255 265 271 270 266 269 271 267 261 250 250 257 251 247 251 253 242 234 242 241 241 240 234 233 234 236 238 244 249
348 349 349 351 351 1 3 353 358 343 328 352 1 344 349 345 328 334 325 272 244 215 216 238 219 294 320 299 299 297 296 298 284 284 268 251 264 281 285 280 268 269 276 280 280 272 270 274 268 257 246 243 253 259 250 250 275 268 255 257 270 284 280 274 272 266 256 261 251 241 249 257 252 248 253 252 240 237 234 234 236 235 234 230 232 232 234 244
348 348 345 349 348 356 3 354 357 353 345 351 344 339 348 329 312 320 296 255 80 104 302 352 300 328 318 298 309 300 292 300 298 293 276 252 260 263 257 267 270 269 284 298 283 272 276 273 265 259 253 245 250 253 235 223 238 258 261 265 277 291 287 286 281 269 260 264 261 251 249 255 257 249 251 254 249 240 233 230 226 227 231 229 230 230 228 235
347 347 344 350 348 356 359 353 359 356 344 339 331 334 339 322 314 310 268 303 54 53 325 340 322 315 294 287 301 293 293 301 295 286 269 239 230 242 241 255 270 274 280 288 272 272 278 277 273 268 263 251 244 249 241 223 230 265 277 269 267 280 285 285 277 271 265 261 256 246 244 247 250 247 248 252 253 250 241 232 223 219 226 226 228 229 225 229
347 347 346 346 353 2 347 342 358 344 332 331 327 329 330 327 327 271 248 323 2 17 351 333 317 314 307 307 310 308 305 295 272 273 268 239 223 235 250 269 276 276 273 271 273 277 280 290 295 286 267 264 261 259 254 236 235 268 277 270 261 254 261 261 260 264 261 258 256 248 246 247 248 241 238 241 243 249 248 240 235 234 235 226 223 228 225 224
347 349 348 349 357 357 330 325 345 335 328 324 322 327 324 316 303 273 313 360 339 355 348 332 328 326 323 322 320 321 314 297 295 292 285 315 295 250 268 287 278 270 277 276 277 282 281 292 304 289 259 263 272 272 262 251 251 254 258 270 268 257 252 247 251 261 259 255 251 248 248 248 251 243 236 237 235 241 244 238 231 236 245 238 222 222 224 222
349 354 1 360 353 353 334 320 324 324 325 323 325 328 305 277 270 293 8 13 353 350 343 334 334 329 326 329 328 322 316 317 326 317 320 4 339 262 276 290 268 259 279 275 273 283 274 267 274 266 269 272 266 267 267 259 260 256 245 262 269 265 255 243 241 247 252 255 249 248 249 248 249 247 245 245 243 246 245 237 229 220 229 240 232 220 217 221
350 3 14 11 2 6 353 316 323 330 328 327 330 325 296 274 263 324 357 7 10 355 340 335 336 329 325 331 333 326 327 336 338 334 339 327 300 302 60 44 289 288 295 296 290 288 278 258 231 235 283 289 265 251 264 261 257 247 235 238 251 259 253 238 234 234 242 248 248 251 251 250 251 252 252 249 246 251 250 247 250 239 221 230 237 227 213 216
352 7 15 16 12 3 341 324 332 330 325 330 325 309 293 302 350 356 349 359 5 343 335 336 334 326 322 329 344 344 338 338 340 337 332 319 307 326 58 80 344 273 273 313 311 304 308 294 239 219 146 282 264 249 255 261 254 245 235 225 233 242 245 243 241 241 247 248 248 251 252 255 259 252 249 248 246 248 248 246 251 254 246 237 238 230 213 209
353 6 11 16 14 355 335 326 324 319 323 331 309 280 292 319 355 2 356 359 348 332 335 337 328 324 328 343 8 10 351 337 343 335 324 324 317 322 41 69 341 300 293 314 324 322 317 325 322 309 151 173 216 236 253 285 271 244 237 232 236 240 247 254 260 260 266 271 264 260 256 254 256 249 247 248 245 241 240 242 245 246 246 248 249 234 211 205
353 7 7 11 10 350 330 315 313 318 328 325 295 280 327 341 353 360 355 352 338 330 335 332 326 328 336 350 16 18 4 344 339 332 325 330 325 333 16 33 5 10 354 326 343 326 300 297 335 309 286 190 218 232 226 226 272 253 238 232 235 242 248 259 277 276 282 290 278 267 259 253 260 259 254 253 253 248 238 235 238 239 233 239 252 239 208 200
357 7 1 355 348 334 325 317 317 319 321 316 306 329 10 4 1 357 347 342 334 333 332 328 335 339 334 342 353 356 359 354 339 336 334 327 328 3 38 35 14 10 356 322 316 302 299 306 310 299 293 274 264 259 221 194 220 234 232 239 245 257 252 252 272 272 272 273 266 263 262 260 264 259 250 247 249 256 254 239 231 230 228 231 243 243 214 198
5 11 346 308 327 337 331 321 314 309 309 306 312 1 17 9 11 3 344 344 343 337 329 328 346 342 331 336 329 336 350 352 343 342 330 322 335 28 39 56 30 357 337 316 301 306 317 302 297 294 286 268 265 274 252 218 222 225 242 249 243 251 244 237 268 274 268 268 267 266 265 264 264 258 249 241 236 240 247 246 233 220 222 229 232 241 235 205
360 2 327 306 342 347 329 309 310 305 296 288 306 2 8 4 11 1 344 345 344 337 333 335 346 339 333 332 323 336 350 346 339 339 325 318 339 19 24 53 356 335 326 308 293 320 331 304 296 290 300 346 340 293 266 232 230 239 256 254 226 247 246 228 252 266 272 275 274 272 271 267 262 266 288 277 266 254 237 237 237 216 212 224 225 235 239 211
350 342 335 353 349 341 316 307 312 298 281 297 349 3 359 357 354 346 345 347 338 334 335 330 335 334 325 322 323 340 356 340 330 329 326 320 319 346 30 62 318 325 328 317 289 287 321 308 296 308 327 348 350 282 273 261 236 238 246 238 226 252 267 254 254 263 274 276 282 288 284 273 263 270 331 305 299 288 251 232 234 218 207 216 221 231 231 205
345 314 6 6 346 336 330 305 295 284 278 350 8 347 350 353 337 337 349 347 330 330 333 321 326 325 314 320 331 349 349 331 327 320 312 313 312 328 45 79 296 315 324 321 302 294 309 269 271 304 323 314 298 269 269 275 260 236 243 243 235 238 248 259 260 251 259 267 274 287 284 275 270 208 272 278 283 287 276 248 227 211 205 211 218 228 219 194
348 304 16 2 349 348 337 304 288 305 343 20 353 329 355 347 326 337 346 343 333 330 329 322 323 321 319 328 344 1 335 319 321 317 302 307 316 326 16 339 311 317 325 325 324 314 288 269 280 289 301 296 281 279 279 284 281 249 243 253 249 250 253 259 262 252 252 262 267 281 286 279 276 285 284 279 272 273 277 269 239 209 207 210 214 220 207 186
351 328 345 348 354 356 333 315 355 359 19 14 318 327 3 342 327 342 345 347 346 338 336 332 326 325 328 337 356 10 340 310 302 311 314 314 315 319 334 336 329 314 310 313 321 324 262 271 283 279 285 279 266 272 283 297 305 288 268 259 257 265 263 258 267 269 264 270 272 279 280 274 291 3 316 293 283 274 272 274 264 233 218 209 202 202 193 180
346 332 331 338 354 1 341 346 18 358 21 360 324 345 11 348 340 348 346 352 351 340 340 335 329 332 330 334 344 142 311 299 268 289 319 318 318 330 333 335 332 311 301 307 324 342 327 275 277 284 288 272 257 266 280 291 306 291 270 262 257 253 251 255 267 279 281 276 271 273 268 266 311 26 315 300 288 270 258 260 263 249 229 209 187 181 179 177
323 311 330 339 348 3 11 18 359 352 18 355 335 358 10 351 350 353 349 351 344 336 337 330 330 333 325 324 324 280 154 295 272 289 315 317 323 328 327 332 332 314 307 327 345 345 319 286 301 310 305 291 274 282 291 294 308 284 266 271 270 263 261 261 261 270 271 261 257 259 262 262 360 24 314 312 293 271 264 262 267 262 229 206 179 172 175 178
317 298 340 344 337 355 35 35 359 350 6 353 339 354 1 351 359 18 12 348 338 343 337 322 327 328 322 325 326 321 210 192 245 296 309 315 316 316 320 328 325 310 313 335 329 311 292 285 299 304 303 313 314 311 310 304 290 273 263 265 270 270 269 266 261 260 259 258 254 250 260 272 287 281 288 301 300 302 300 279 276 281 237 191 168 172 177 178
325 319 348 342 335 349 35 36 15 356 353 353 334 344 360 348 351 20 17 349 344 349 332 318 331 330 328 332 328 320 304 243 246 276 298 314 312 309 318 324 323 318 325 323 308 293 288 282 280 281 285 294 295 295 303 302 296 290 281 277 275 274 274 269 260 251 256 276 270 250 256 277 284 274 256 289 304 314 310 300 301 292 240 176 165 175 176 174
335 342 352 340 333 349 14 22 9 342 332 350 331 341 357 344 341 6 4 346 346 345 329 325 338 337 338 338 326 311 319 309 288 291 309 318 314 313 316 323 334 320 307 306 301 290 283 283 283 284 285 289 293 296 299 298 297 294 291 290 288 289 288 269 252 254 266 288 273 253 259 276 284 293 300 309 316 314 309 311 309 288 217 166 166 173 169 165
355 342 355 3 335 327 353 6 347 322 331 10 344 344 350 341 347 359 351 344 344 343 340 332 334 341 341 335 325 312 323 315 304 322 333 327 322 320 318 327 339 265 283 315 322 309 280 285 291 296 299 304 304 304 306 303 298 293 287 284 280 280 276 256 251 258 259 260 263 277 293 287 286 296 303 305 304 297 295 293 293 284 218 167 169 173 164 149
1 342 354 358 322 296 307 328 322 318 352 34 360 354 351 340 349 355 343 342 341 343 346 330 330 340 337 330 329 327 330 327 321 331 332 323 318 315 317 328 326 291 319 332 334 339 302 282 303 313 310 307 304 309 317 309 296 287 273 267 266 265 263 259 259 258 253 253 262 277 287 285 281 283 288 287 278 274 279 276 278 279 237 168 164 166 154 135
3 342 337 332 315 300 296 298 307 315 356 22 1 356 348 338 345 346 338 341 336 332 339 331 330 334 331 329 334 332 332 333 323 318 321 320 316 313 318 322 320 330 335 330 330 335 314 291 315 321 308 298 300 303 301 287 272 269 267 264 259 255 259 262 261 258 253 253 258 264 272 277 277 272 272 275 272 269 274 272 263 261 260 173 160 157 146 133
3 324 321 324 314 309 306 304 315 325 359 10 354 342 335 335 342 338 331 335 331 325 333 332 330 331 327 328 335 334 331 326 316 310 307 300 296 298 298 297 307 322 324 315 314 317 309 301 310 317 306 296 295 286 281 276 263 265 274 271 264 257 254 257 259 261 257 256 266 270 259 259 269 280 280 278 284 285 286 303 307 179 180 226 151 144 145 141
7 343 326 325 299 298 306 311 332 353 4 351 337 328 326 331 337 335 327 328 330 331 333 328 325 327 326 329 336 332 321 312 306 304 299 288 282 280 275 277 287 293 292 300 305 298 300 303 303 321 306 289 291 293 287 281 269 274 276 260 254 249 238 247 268 269 260 253 250 248 247 251 266 287 286 273 285 307 346 356 3 45 155 201 147 131 138 144
Height
1524 1522 1520 1519 1517 1515 1513 1511 1510 1508 1507 1505 1503 1502 1500 1499 1497 1496 1495 1493 1492 1491 1490 1489 1488 1487 1485 1484 1483 1481 1480 1478 1477 1477 1477 1477 1477 1477 1477 1477 1476 1477 1478 1478 1478 1479 1479 1479 1479 1480 1480 1479 1478 1476 1476 1474 1473 1471 1468 1469 1466 1458 1452 1447 1444 1440 1437 1435 1433 1431 1431 1434 1433 1428 1424 1421 1419 1418 1421 1423 1426 1426 1424 1429 1434 1438 1442 1446
1524 1522 1520 1518 1516 1514 1513 1511 1509 1507 1505 1504 1502 1500 1499 1497 1496 1495 1493 1492 1490 1489 1488 1487 1486 1485 1484 1483 1482 1480 1478 1476 1475 1474 1474 1474 1475 1475 1475 1475 1475 1476 1477 1478 1478 1478 1478 1477 1477 1477 1477 1476 1474 1473 1472 1471 1469 1466 1464 1464 1461 1453 1448 1444 1442 1439 1436 1436 1435 1435 1436 1437 1435 1432 1429 1425 1420 1420 1421 1420 1423 1424 1425 1430 1431 1437 1443 1446
1523 1521 1519 1518 1516 1514 1512 1510 1508 1506 1504 1502 1500 1499 1497 1496 1495 1493 1492 1490 1489 1488 1487 1485 1484 1483 1483 1482 1481 1479 1477 1475 1473 1472 1472 1472 1473 1473 1473 1472 1473 1475 1476 1477 1477 1478 1477 1476 1475 1474 1473 1472 1470 1469 1467 1466 1464 1462 1461 1460 1455 1450 1447 1444 1441 1439 1437 1438 1439 1440 1441 1439 1437 1434 1433 1430 1425 1424 1421 1417 1420 1422 1425 1433 1434 1436 1441 1444
1523 1521 1519 1517 1515 1513 1511 1509 1507 1505 1503 1501 1499 1497 1496 1494 1493 1491 1490 1489 1488 1487 1485 1484 1483 1482 1482 1482 1480 1478 1477 1475 1472 1471 1471 1472 1472 1472 1471 1471 1472 1474 1475 1476 1476 1477 1476 1475 1475 1474 1472 1469 1468 1466 1463 1461 1460 1458 1458 1456 1451 1448 1446 1444 1442 1440 1439 1440 1442 1443 1443 1441 1437 1436 1435 1432 1430 1426 1416 1413 1420 1423 1426 1434 1438 1438 1439 1441
1523 1520 1518 1516 1514 1512 1510 1508 1506 1504 1502 1500 1498 1496 1495 1493 1492 1490 1489 1488 1487 1485 1484 1483 1482 1482 1482 1481 1480 1478 1478 1475 1470 1470 1471 1471 1472 1472 1472 1471 1473 1474 1474 1475 1476 1476 1476 1475 1474 1473 1472 1468 1466 1463 1458 1457 1456 1455 1453 1451 1449 1448 1445 1442 1441 1439 1439 1441 1444 1444 1444 1443 1439 1437 1437 1435 1436 1429 1417 1417 1424 1427 1430 1435 1442 1444 1442 1440
1522 1520 1518 1516 1514 1511 1509 1507 1505 1503 1501 1499 1497 1495 1494 1492 1491 1490 1488 1487 1486 1484 1483 1482 1482 1482 1481 1481 1480 1479 1480 1474 1469 1470 1471 1471 1471 1471 1472 1472 1473 1473 1474 1475 1475 1476 1475 1474 1473 1471 1469 1467 1464 1460 1455 1453 1453 1452 1450 1448 1447 1446 1444 1442 1439 1436 1437 1442 1445 1446 1445 1445 1442 1440 1440 1438 1437 1431 1424 1426 1428 1430 1433 1436 1441 1444 1446 1446
1522 1519 1517 1515 1513 1511 1508 1506 1504 1502 1500 1498 1496 1495 1493 1492 1490 1489 1488 1486 1485 1483 1483 1482 1482 1481 1480 1480 1479 1479 1479 1474 1470 1470 1470 1470 1471 1471 1472 1472 1473 1473 1473 1474 1475 1474 1473 1472 1471 1469 1466 1463 1461 1457 1454 1451 1449 1449 1448 1447 1445 1444 1443 1442 1440 1437 1438 1443 1446 1448 1447 1446 1444 1442 1442 1439 1437 1433 1429 1430 1431 1432 1435 1437 1440 1441 1445 1450
1521 1519 1516 1514 1512 1510 1508 1505 1503 1501 1499 1498 1496 1495 1493 1491 1490 1488 1487 1485 1484 1483 1482 1482 1481 1481 1480 1479 1479 1478 1476 1473 1470 1470 1470 1470 1470 1470 1471 1471 1472 1473 1473 1474 1473 1473 1472 1470 1468 1467 1464 1460 1457 1454 1451 1449 1446 1445 1444 1443 1442 1442 1441 1441 1441 1439 1440 1445 1448 1448 1446 1446 1445 1444 1442 1439 1439 1435 1430 1433 1435 1435 1437 1437 1440 1441 1443 1448
1521 1518 1516 1514 1511 1509 1507 1504 1503 1501 1499 1497 1495 1494 1492 1491 1489 1488 1486 1485 1483 1482 1482 1481 1481 1480 1479 1478 1479 1478 1473 1472 1471 1470 1470 1470 1469 1470 1470 1471 1472 1473 1473 1473 1472 1472 1470 1469 1467 1465 1462 1458 1456 1453 1448 1446 1443 1440 1439 1440 1442 1443 1443 1442 1441 1441 1443 1446 1447 1446 1445 1445 1445 1444 1440 1438 1442 1437 1429 1433 1437 1437 1437 1436 1438 1441 1443 1445
1520 1518 1515 1513 1511 1508 1506 1504 1502 1500 1498 1497 1495 1493 1492 1490 1489 1487 1486 1484 1483 1482 1481 1481 1480 1480 1479 1479 1480 1477 1472 1472 1473 1471 1470 1470 1470 1471 1471 1471 1472 1472 1472 1472 1471 1470 1470 1468 1466 1465 1464 1460 1457 1455 1450 1446 1443 1439 1439 1442 1445 1445 1443 1442 1440 1442 1446 1446 1446 1445 1444 1444 1445 1445 1439 1437 1442 1440 1430 1429 1434 1436 1435 1435 1437 1440 1441 1442
1519 1517 1515 1512 1510 1508 1505 1503 1501 1500 1498 1496 1494 1493 1491 1490 1488 1486 1485 1484 1482 1481 1480 1480 1479 1479 1478 1479 1480 1475 1472 1473 1473 1472 1471 1470 1471 1471 1471 1471 1472 1472 1471 1471 1470 1469 1469 1468 1467 1466 1465 1461 1457 1455 1452 1450 1447 1444 1443 1444 1447 1447 1445 1443 1441 1443 1446 1445 1446 1445 1444 1444 1445 1443 1439 1438 1442 1442 1435 1427 1429 1433 1433 1432 1435 1439 1439 1439
1519 1517 1514 1511 1509 1507 1505 1503 1501 1499 1497 1495 1494 1492 1491 1489 1487 1485 1484 1483 1481 1480 1479 1479 1479 1478 1478 1479 1477 1473 1472 1473 1472 1471 1471 1470 1470 1470 1470 1471 1471 1471 1470 1470 1469 1468 1468 1467 1467 1467 1463 1461 1459 1456 1453 1452 1450 1448 1447 1448 1449 1448 1446 1443 1442 1443 1444 1443 1444 1445 1446 1444 1442 1440 1439 1440 1440 1440 1439 1430 1425 1429 1431 1429 1431 1436 1437 1437
1518 1516 1513 1511 1508 1506 1504 1502 1500 1498 1497 1495 1493 1492 1490 1488 1486 1484 1483 1481 1480 1479 1479 1479 1478 1478 1479 1478 1473 1471 1471 1471 1471 1470 1469 1469 1469 1469 1469 1470 1470 1470 1470 1469 1468 1467 1467 1466 1467 1466 1464 1462 1459 1456 1453 1452 1452 1450 1450 1450 1450 1449 1443 1439 1439 1440 1440 1439 1441 1445 1448 1444 1438 1436 1437 1439 1438 1437 1437 1433 1428 1427 1429 1428 1427 1431 1432 1434
1517 1515 1512 1510 1507 1505 1503 1501 1499 1498 1496 1494 1493 1491 1489 1488 1486 1484 1482 1481 1479 1479 1478 1478 1477 1478 1480 1476 1471 1471 1470 1469 1469 1469 1468 1468 1468 1468 1468 1468 1468 1469 1468 1468 1467 1466 1465 1465 1466 1465 1464 1462 1460 1457 1454 1452 1451 1450 1451 1450 1450 1450 1442 1433 1433 1434 1434 1434 1436 1441 1446 1442 1434 1432 1432 1433 1434 1434 1434 1433 1431 1428 1429 1429 1425 1426 1426 1428
1517 1514 1512 1509 1506 1504 1502 1500 1499 1497 1495 1493 1492 1490 1488 1487 1485 1483 1483 1481 1479 1478 1478 1477 1477 1478 1479 1473 1470 1470 1469 1468 1468 1467 1468 1468 1468 1467 1467 1467 1467 1467 1468 1467 1467 1466 1466 1466 1466 1464 1462 1461 1459 1458 1455 1452 1449 1448 1451 1450 1444 1444 1438 1429 1427 1425 1426 1428 1430 1436 1443 1439 1433 1431 1429 1428 1428 1429 1431 1432 1433 1431 1430 1430 1427 1424 1424 1425
1516 1513 1511 1508 1505 1503 1501 1500 1498 1496 1495 1493 1491 1489 1488 1487 1485 1483 1482 1481 1480 1479 1478 1477 1477 1479 1478 1472 1469 1469 1468 1466 1466 1467 1467 1467 1467 1466 1466 1466 1466 1466 1466 1466 1467 1466 1466 1465 1464 1463 1461 1459 1457 1455 1455 1453 1449 1444 1446 1446 1440 1437 1433 1426 1421 1417 1418 1421 1425 1432 1438 1436 1430 1428 1426 1426 1425 1424 1426 1428 1431 1432 1431 1431 1430 1428 1426 1427
1515 1512 1510 1507 1505 1503 1501 1499 1497 1496 1494 1492 1490 1489 1487 1486 1484 1483 1482 1481 1480 1479 1479 1478 1479 1480 1476 1470 1468 1467 1466 1465 1465 1466 1466 1466 1466 1466 1465 1464 1464 1464 1464 1464 1465 1465 1465 1464 1462 1461 1458 1456 1453 1451 1454 1455 1449 1441 1437 1437 1435 1431 1429 1424 1415 1410 1412 1418 1423 1428 1432 1432 1428 1425 1423 1423 1423 1423 1423 1425 1427 1429 1430 1430 1430 1429 1427 1426
1514 1512 1509 1506 1504 1502 1500 1498 1497 1495 1494 1492 1490 1488 1487 1485 1483 1482 1481 1480 1480 1480 1479 1479 1481 1480 1472 1468 1467 1465 1465 1465 1465 1465 1465 1465 1465 1465 1465 1464 1463 1462 1461 1461 1461 1462 1462 1461 1459 1457 1454 1453 1450 1450 1452 1450 1443 1438 1434 1432 1430 1427 1426 1422 1414 1408 1409 1417 1425 1428 1429 1428 1425 1424 1424 1423 1424 1424 1423 1424 1425 1425 1426 1428 1428 1427 1426 1425
1513 1511 1508 1505 1503 1501 1500 1498 1496 1495 1493 1491 1490 1487 1485 1483 1482 1480 1481 1481 1480 1479 1476 1475 1477 1475 1469 1465 1465 1464 1463 1464 1463 1463 1463 1462 1462 1463 1463 1463 1462 1461 1460 1458 1457 1457 1458 1458 1457 1455 1452 1449 1445 1444 1444 1440 1435 1433 1431 1429 1427 1425 1423 1419 1413 1409 1410 1417 1424 1427 1427 1425 1424 1423 1422 1423 1423 1424 1424 1424 1424 1423 1423 1424 1425 1425 1426 1427
1513 1510 1507 1504 1502 1501 1499 1498 1496 1495 1492 1491 1489 1486 1484 1484 1482 1480 1481 1481 1479 1476 1472 1470 1471 1468 1465 1464 1464 1463 1462 1463 1462 1460 1459 1460 1460 1460 1460 1459 1459 1459 1458 1456 1455 1454 1455 1457 1455 1452 1449 1444 1440 1437 1435 1434 1432 1431 1430 1430 1427 1426 1424 1419 1415 1413 1413 1415 1417 1420 1419 1417 1421 1423 1421 1421 1422 1421 1422 1423 1423 1423 1422 1421 1421 1423 1425 1426
1512 1509 1506 1504 1502 1500 1499 1498 1497 1495 1493 1491 1489 1487 1488 1488 1487 1484 1482 1478 1475 1474 1470 1469 1469 1467 1465 1465 1464 1463 1463 1463 1461 1459 1458 1458 1459 1459 1457 1456 1456 1455 1453 1452 1452 1450 1452 1454 1451 1447 1444 1441 1438 1435 1433 1431 1430 1430 1430 1431 1430 1429 1427 1421 1417 1415 1416 1418 1417 1416 1416 1414 1417 1422 1423 1422 1422 1420 1420 1420 1421 1422 1422 1420 1419 1419 1422 1424
1511 1509 1506 1504 1502 1500 1499 1498 1497 1496 1494 1491 1490 1490 1491 1492 1491 1490 1487 1479 1473 1471 1469 1467 1468 1466 1465 1464 1463 1463 1463 1461 1458 1457 1457 1457 1458 1457 1454 1452 1453 1451 1448 1451 1452 1453 1455 1451 1445 1443 1441 1441 1438 1434 1437 1435 1432 1430 1429 1430 1430 1427 1425 1422 1417 1416 1418 1421 1421 1418 1418 1416 1412 1414 1419 1421 1419 1418 1418 1418 1419 1420 1420 1420 1418 1417 1418 1421
1511 1508 1506 1504 1502 1501 1499 1498 1497 1496 1494 1492 1491 1492 1493 1492 1492 1490 1489 1483 1474 1469 1467 1466 1465 1464 1463 1462 1462 1462 1461 1459 1456 1455 1455 1456 1456 1455 1453 1451 1450 1449 1448 1450 1452 1456 1459 1449 1442 1443 1442 1444 1444 1439 1439 1440 1436 1430 1429 1432 1430 1424 1425 1425 1420 1418 1419 1420 1420 1420 1420 1418 1411 1407 1413 1418 1416 1415 1416 1416 1416 1417 1418 1418 1418 1417 1416 1417
1511 1508 1506 1504 1502 1501 1499 1498 1497 1495 1494 1493 1492 1493 1493 1492 1491 1490 1488 1482 1474 1467 1464 1464 1463 1463 1462 1461 1461 1461 1460 1458 1456 1454 1454 1456 1454 1453 1452 1449 1449 1448 1446 1446 1445 1448 1449 1442 1441 1444 1443 1445 1448 1443 1439 1442 1444 1434 1428 1430 1427 1423 1424 1424 1421 1420 1421 1421 1421 1424 1425 1420 1415 1411 1410 1411 1412 1412 1412 1412 1412 1413 1415 1415 1416 1416 1415 1415
1510 1507 1505 1503 1502 1501 1499 1498 1496 1495 1495 1495 1494 1493 1492 1493 1490 1489 1487 1482 1474 1465 1460 1462 1463 1463 1462 1461 1461 1460 1458 1457 1454 1454 1453 1454 1453 1451 1450 1448 1448 1448 1445 1442 1441 1441 1439 1436 1438 1441 1442 1444 1445 1443 1438 1442 1447 1437 1427 1426 1424 1423 1423 1421 1421 1423 1427 1428 1423 1426 1433 1425 1415 1413 1408 1403 1407 1409 1409 1408 1408 1409 1411 1412 1413 1414 1414 1413
1509 1507 1505 1503 1502 1501 1499 1498 1497 1496 1495 1495 1495 1492 1492 1492 1489 1489 1488 1482 1472 1462 1460 1462 1462 1463 1462 1461 1460 1458 1458 1455 1453 1453 1452 1451 1451 1451 1450 1447 1446 1446 1443 1441 1441 1439 1435 1434 1436 1436 1439 1441 1442 1442 1437 1440 1449 1440 1426 1424 1426 1428 1428 1423 1423 1427 1432 1432 1421 1421 1432 1429 1417 1412 1407 1402 1403 1404 1404 1404 1404 1405 1406 1408 1409 1412 1412 1412
1509 1507 1505 1504 1502 1500 1499 1498 1497 1496 1495 1495 1494 1492 1493 1491 1488 1490 1488 1483 1474 1463 1460 1461 1461 1462 1461 1460 1458 1458 1459 1455 1451 1451 1450 1449 1450 1451 1451 1447 1445 1444 1442 1445 1446 1440 1434 1434 1434 1432 1433 1435 1437 1438 1434 1438 1447 1438 1426 1426 1429 1433 1433 1429 1427 1428 1428 1427 1422 1417 1423 1427 1422 1413 1405 1402 1400 1397 1396 1397 1397 1399 1401 1403 1405 1407 1409 1410
1508 1506 1505 1503 1502 1501 1500 1499 1497 1497 1497 1496 1494 1493 1493 1489 1489 1489 1487 1485 1475 1463 1462 1462 1461 1462 1460 1458 1456 1455 1455 1451 1450 1451 1449 1448 1448 1448 1448 1445 1445 1443 1441 1448 1450 1439 1433 1434 1432 1431 1434 1432 1430 1430 1428 1432 1436 1431 1426 1428 1430 1434 1435 1432 1431 1429 1424 1425 1426 1419 1416 1424 1423 1411 1403 1401 1399 1395 1392 1388 1388 1392 1396 1398 1401 1403 1405 1406
1508 1506 1504 1503 1502 1501 1500 1498 1498 1498 1497 1496 1494 1493 1491 1490 1490 1487 1487 1484 1468 1460 1464 1462 1460 1460 1457 1455 1453 1451 1450 1449 1450 1449 1446 1446 1447 1446 1446 1444 1444 1442 1440 1443 1444 1437 1433 1434 1433 1433 1437 1433 1426 1423 1423 1428 1429 1427 1428 1428 1427 1430 1432 1432 1432 1428 1425 1429 1429 1419 1413 1419 1418 1408 1402 1401 1400 1396 1389 1382 1382 1388 1391 1393 1396 1399 1401 1403
1507 1505 1504 1503 1501 1501 1500 1498 1498 1498 1497 1495 1493 1492 1490 1491 1489 1484 1483 1477 1462 1460 1464 1461 1460 1459 1455 1453 1452 1451 1449 1446 1446 1445 1442 1445 1448 1448 1448 1446 1443 1441 1440 1440 1439 1437 1432 1433 1435 1435 1434 1428 1424 1423 1421 1423 1424 1424 1427 1429 1429 1428 1428 1429 1429 1428 1431 1432 1426 1415 1409 1413 1414 1405 1397 1394 1393 1390 1385 1381 1382 1387 1388 1388 1390 1394 1397 1398
1507 1505 1504 1503 1501 1501 1499 1499 1498 1496 1495 1493 1491 1490 1490 1490 1487 1481 1475 1465 1460 1463 1464 1461 1461 1458 1454 1454 1454 1452 1448 1445 1446 1445 1444 1446 1447 1447 1449 1450 1446 1442 1441 1441 1440 1438 1432 1431 1432 1431 1430 1426 1423 1423 1421 1420 1421 1424 1427 1432 1435 1434 1431 1432 1430 1432 1440 1434 1419 1409 1405 1407 1410 1403 1392 1386 1384 1382 1379 1377 1377 1380 1383 1385 1385 1388 1392 1394
1506 1505 1504 1503 1501 1500 1499 1499 1497 1495 1494 1492 1491 1490 1489 1487 1483 1477 1466 1460 1466 1471 1466 1462 1462 1458 1455 1455 1456 1453 1448 1447 1449 1447 1447 1447 1443 1442 1449 1454 1452 1449 1446 1441 1439 1435 1427 1423 1424 1425 1428 1430 1426 1425 1425 1423 1423 1426 1427 1433 1443 1444 1444 1442 1434 1432 1435 1426 1412 1405 1403 1403 1401 1395 1387 1381 1380 1377 1374 1372 1372 1372 1375 1380 1382 1382 1385 1390
1506 1505 1504 1502 1500 1499 1499 1498 1496 1494 1493 1492 1491 1490 1489 1486 1479 1471 1465 1465 1473 1473 1465 1463 1462 1458 1456 1456 1457 1455 1451 1450 1450 1448 1448 1445 1442 1443 1449 1453 1453 1453 1450 1442 1437 1433 1425 1420 1421 1422 1427 1432 1428 1427 1430 1429 1428 1428 1427 1434 1442 1445 1449 1447 1435 1428 1425 1415 1405 1400 1400 1400 1395 1388 1380 1376 1375 1374 1371 1372 1372 1371 1372 1375 1377 1378 1380 1384
1505 1505 1504 1502 1500 1499 1499 1498 1496 1495 1493 1492 1492 1490 1489 1486 1477 1471 1470 1472 1474 1471 1466 1466 1463 1458 1456 1457 1458 1458 1457 1456 1452 1450 1447 1444 1445 1446 1448 1451 1450 1449 1448 1444 1439 1439 1436 1430 1425 1422 1423 1428 1427 1426 1429 1431 1432 1429 1424 1430 1435 1435 1441 1441 1430 1425 1420 1410 1401 1397 1398 1398 1391 1381 1373 1369 1368 1368 1368 1369 1370 1370 1371 1372 1372 1372 1374 1378
1505 1504 1503 1501 1500 1500 1499 1499 1496 1495 1494 1493 1490 1485 1484 1483 1478 1476 1477 1477 1476 1473 1471 1469 1464 1461 1459 1457 1458 1459 1462 1461 1456 1452 1449 1446 1447 1446 1448 1452 1450 1447 1448 1447 1444 1440 1437 1431 1425 1421 1419 1421 1423 1422 1425 1431 1434 1429 1421 1425 1428 1426 1431 1434 1428 1422 1421 1416 1407 1400 1396 1388 1379 1371 1366 1366 1364 1361 1362 1363 1365 1366 1367 1370 1368 1366 1367 1372
1505 1503 1502 1502 1502 1502 1500 1499 1496 1495 1495 1493 1487 1480 1479 1480 1479 1480 1480 1479 1478 1476 1475 1472 1467 1467 1467 1463 1462 1461 1462 1464 1460 1456 1453 1448 1446 1447 1451 1454 1452 1450 1451 1451 1448 1441 1438 1431 1422 1420 1419 1418 1420 1418 1418 1425 1431 1430 1426 1424 1423 1421 1423 1429 1428 1421 1422 1423 1409 1398 1393 1382 1374 1368 1362 1363 1363 1359 1358 1356 1356 1360 1363 1365 1364 1362 1363 1367
1505 1503 1503 1503 1503 1502 1500 1498 1497 1496 1496 1494 1489 1482 1479 1478 1478 1480 1480 1479 1480 1479 1479 1478 1474 1473 1474 1471 1468 1465 1465 1466 1464 1463 1459 1452 1448 1448 1451 1453 1454 1453 1451 1451 1448 1441 1441 1436 1422 1418 1420 1416 1416 1416 1414 1416 1422 1426 1426 1420 1418 1419 1419 1424 1430 1426 1425 1422 1405 1394 1390 1382 1377 1369 1357 1355 1357 1356 1356 1353 1351 1354 1359 1360 1359 1360 1361 1363
1506 1504 1504 1503 1502 1500 1499 1498 1496 1496 1496 1494 1488 1482 1480 1480 1481 1482 1481 1480 1481 1480 1481 1482 1479 1476 1477 1476 1472 1468 1470 1471 1469 1468 1464 1456 1452 1450 1451 1454 1454 1451 1449 1450 1448 1442 1443 1440 1424 1416 1418 1415 1415 1418 1416 1411 1412 1415 1416 1413 1416 1422 1422 1424 1430 1429 1426 1421 1404 1391 1385 1378 1372 1366 1360 1359 1358 1353 1351 1349 1347 1347 1351 1355 1355 1357 1359 1360
1505 1504 1504 1503 1501 1500 1498 1497 1496 1496 1495 1491 1486 1485 1485 1485 1485 1484 1483 1482 1482 1481 1483 1484 1481 1480 1479 1478 1475 1473 1476 1476 1473 1471 1467 1459 1454 1450 1452 1456 1455 1450 1447 1447 1446 1442 1444 1446 1432 1416 1414 1416 1417 1421 1419 1412 1409 1409 1409 1409 1411 1416 1420 1421 1422 1422 1424 1422 1410 1398 1389 1378 1367 1365 1367 1369 1365 1357 1351 1347 1343 1342 1345 1350 1351 1352 1353 1355
1506 1504 1504 1503 1502 1499 1498 1497 1495 1494 1492 1488 1489 1490 1488 1488 1488 1484 1484 1484 1482 1481 1483 1483 1482 1483 1481 1477 1477 1478 1479 1478 1475 1472 1467 1460 1455 1451 1451 1455 1455 1450 1447 1443 1442 1441 1442 1446 1438 1421 1414 1418 1420 1420 1416 1411 1410 1411 1410 1410 1409 1410 1413 1415 1414 1412 1417 1421 1416 1409 1398 1378 1365 1365 1367 1365 1364 1360 1354 1347 1340 1338 1342 1345 1347 1348 1348 1349
1506 1504 1504 1504 1501 1499 1497 1496 1493 1491 1489 1491 1492 1488 1486 1489 1489 1484 1483 1484 1481 1480 1481 1481 1481 1482 1480 1477 1478 1481 1481 1479 1476 1471 1464 1460 1458 1454 1451 1453 1452 1450 1447 1443 1443 1444 1443 1441 1438 1428 1422 1422 1420 1415 1410 1405 1404 1406 1408 1409 1407 1407 1411 1415 1415 1406 1406 1411 1410 1410 1402 1377 1361 1363 1363 1360 1361 1358 1353 1349 1342 1336 1337 1339 1341 1343 1343 1345
1507 1505 1504 1504 1502 1499 1496 1493 1491 1491 1492 1495 1493 1487 1486 1489 1488 1485 1484 1484 1482 1481 1480 1480 1481 1479 1477 1478 1480 1484 1485 1481 1475 1469 1462 1457 1456 1454 1451 1450 1450 1449 1448 1445 1442 1443 1442 1439 1437 1431 1423 1418 1414 1411 1408 1405 1403 1402 1404 1405 1404 1406 1409 1414 1415 1406 1404 1408 1406 1411 1407 1376 1357 1363 1366 1363 1360 1354 1351 1350 1344 1335 1331 1331 1334 1337 1340 1343
1510 1508 1506 1504 1502 1500 1497 1495 1495 1494 1495 1497 1493 1488 1489 1490 1488 1486 1485 1485 1485 1484 1482 1481 1481 1480 1478 1479 1480 1485 1487 1482 1473 1467 1463 1456 1453 1452 1451 1451 1450 1447 1445 1444 1442 1441 1441 1438 1436 1431 1422 1413 1411 1412 1411 1409 1410 1409 1405 1403 1403 1405 1406 1408 1408 1404 1407 1408 1406 1411 1404 1371 1355 1363 1367 1365 1362 1355 1352 1349 1341 1333 1327 1326 1329 1332 1337 1342
1512 1509 1507 1505 1503 1501 1500 1501 1502 1499 1498 1499 1494 1490 1491 1490 1489 1488 1488 1488 1488 1486 1485 1483 1481 1480 1480 1478 1477 1480 1485 1482 1473 1467 1464 1460 1455 1452 1451 1451 1450 1447 1444 1443 1443 1445 1443 1438 1437 1436 1428 1416 1413 1418 1418 1416 1418 1417 1410 1406 1403 1401 1402 1403 1402 1404 1408 1404 1402 1407 1394 1366 1359 1366 1363 1362 1361 1355 1350 1343 1335 1331 1326 1325 1327 1330 1335 1341
1512 1509 1508 1507 1505 1503 1503 1504 1505 1502 1502 1502 1498 1493 1492 1491 1490 1490 1490 1490 1488 1487 1487 1484 1482 1480 1479 1477 1476 1476 1480 1482 1478 1471 1466 1463 1458 1453 1450 1450 1448 1445 1443 1443 1443 1445 1444 1439 1439 1440 1436 1428 1424 1423 1422 1422 1421 1416 1411 1409 1406 1405 1405 1405 1405 1410 1408 1397 1394 1398 1384 1361 1359 1368 1366 1363 1360 1354 1348 1339 1331 1328 1325 1323 1325 1329 1334 1339
1514 1511 1511 1509 1506 1504 1504 1505 1506 1505 1504 1504 1501 1494 1493 1492 1490 1490 1491 1490 1488 1488 1487 1484 1482 1480 1478 1477 1477 1477 1476 1478 1479 1474 1470 1468 1462 1453 1449 1448 1446 1444 1444 1444 1443 1443 1442 1438 1436 1437 1436 1433 1429 1423 1421 1422 1420 1414 1411 1409 1406 1406 1406 1408 1410 1409 1404 1398 1392 1386 1379 1365 1357 1361 1366 1364 1360 1357 1350 1338 1330 1327 1322 1321 1325 1329 1333 1337
1517 1515 1515 1515 1510 1506 1505 1506 1507 1505 1502 1503 1501 1496 1495 1495 1490 1490 1492 1490 1489 1488 1486 1483 1481 1481 1479 1478 1478 1478 1476 1475 1475 1472 1470 1468 1461 1452 1449 1447 1446 1445 1444 1444 1442 1441 1443 1439 1433 1432 1432 1427 1423 1420 1417 1416 1415 1412 1410 1408 1406 1406 1408 1411 1411 1403 1400 1403 1391 1374 1374 1372 1358 1354 1359 1358 1355 1354 1348 1339 1334 1330 1323 1320 1325 1329 1333 1338
1521 1519 1519 1520 1517 1512 1509 1509 1508 1504 1500 1501 1500 1498 1499 1496 1492 1492 1493 1490 1489 1489 1487 1485 1482 1480 1479 1478 1478 1478 1477 1475 1471 1469 1469 1467 1460 1453 1449 1445 1445 1445 1444 1441 1439 1439 1442 1438 1430 1428 1426 1420 1418 1416 1412 1411 1410 1409 1409 1409 1408 1408 1409 1409 1407 1402 1402 1403 1388 1372 1374 1375 1362 1355 1357 1356 1354 1353 1349 1345 1341 1333 1324 1322 1325 1329 1333 1339
1525 1523 1521 1521 1519 1515 1512 1511 1508 1502 1499 1500 1500 1500 1501 1497 1494 1494 1493 1490 1490 1489 1489 1488 1483 1479 1479 1478 1476 1477 1476 1474 1471 1469 1467 1465 1460 1456 1451 1446 1444 1444 1442 1440 1437 1437 1440 1436 1428 1425 1423 1417 1415 1413 1410 1411 1412 1410 1410 1410 1408 1408 1408 1406 1404 1402 1402 1399 1388 1381 1381 1375 1364 1359 1357 1354 1353 1352 1350 1348 1343 1333 1324 1322 1325 1328 1334 1341
1529 1528 1525 1522 1519 1514 1511 1509 1505 1500 1498 1500 1502 1503 1502 1498 1496 1495 1493 1492 1492 1490 1488 1487 1484 1480 1479 1476 1475 1475 1472 1470 1470 1468 1465 1463 1460 1457 1454 1450 1445 1443 1443 1441 1437 1437 1438 1434 1426 1425 1424 1417 1412 1411 1410 1412 1414 1412 1409 1408 1407 1407 1406 1404 1402 1400 1398 1394 1388 1387 1388 1375 1359 1355 1354 1349 1348 1348 1347 1343 1339 1333 1327 1325 1326 1330 1337 1344
1531 1531 1529 1526 1521 1515 1511 1507 1502 1500 1500 1503 1506 1505 1502 1499 1497 1496 1494 1492 1492 1489 1487 1486 1484 1481 1478 1475 1474 1472 1468 1466 1466 1463 1461 1461 1458 1456 1455 1451 1447 1446 1445 1443 1439 1437 1437 1434 1427 1428 1428 1416 1408 1409 1408 1407 1411 1411 1408 1405 1403 1402 1401 1399 1398 1397 1395 1390 1385 1386 1384 1369 1353 1351 1351 1346 1343 1345 1343 1338 1334 1334 1334 1332 1331 1333 1340 1346
1531 1530 1529 1528 1523 1515 1510 1505 1501 1502 1505 1507 1507 1506 1503 1500 1497 1496 1495 1491 1489 1488 1487 1485 1483 1479 1476 1474 1472 1469 1466 1463 1461 1458 1456 1456 1453 1452 1453 1449 1447 1447 1445 1443 1440 1436 1436 1434 1429 1431 1429 1414 1405 1405 1403 1402 1407 1407 1402 1397 1396 1398 1398 1396 1395 1393 1389 1386 1385 1379 1366 1354 1351 1352 1350 1346 1343 1343 1343 1340 1338 1338 1339 1339 1339 1340 1343 1346